Location: Gudip?du
(17.0263°N, 80.8301°E)
Time: 13:55:20
(UTC+00:00)

Atlas Centaur 2 - Pass Details

Date: 03 August 2024
Orbit: 457 x 1271 km, 30.4° (Epoch: 11 September)

Event Time Altitude Azimuth Distance (km) Brightness Sun altitude
Rises 14:43:46 0° 266° (W) 2,625 5.8 -21.9°
Reaches altitude 10° 14:45:58 10° 276° (W) 1,820 4.9 -22.4°
Maximum altitude 14:49:48 34° 343° (NNW) 1,025 3.0 -23.2°
Enters shadow 14:52:54 18° 39° (NE) 1,688 3.7 -23.8°
